| time (UTC) | temp C | wind direction | speed KPH | gust KPH | rain 1hr cm | rain 24hr cm | rain mn cm | humidity % | barometer mb |
| 20260505024529 | 12 | 149 | 0.0 | 0.0 | 0.00 | 0.00 | 0.00 | 58 | 1006.7 |
| 20260505023035 | 13 | 130 | 0.0 | 0.0 | 0.00 | 0.00 | 0.00 | 57 | 1006.9 |
| 20260505021530 | 13 | 144 | 0.0 | 1.6 | 0.00 | 0.00 | 0.00 | 56 | 1007.0 |
| 20260505020027 | 13 | 95 | 0.0 | 8.0 | 0.00 | 0.00 | 0.00 | 56 | 1007.0 |
| 20260505014535 | 13 | 157 | 0.0 | 3.2 | 0.00 | 0.00 | 0.00 | 55 | 1006.9 |
| 20260505013026 | 13 | 150 | 0.0 | 0.0 | 0.00 | 0.00 | 0.00 | 55 | 1006.9 |
| 20260505011526 | 13 | 150 | 0.0 | 0.0 | 0.00 | 0.00 | 0.00 | 55 | 1006.8 |
| 20260505010025 | 13 | 151 | 0.0 | 0.0 | 0.00 | 0.00 | 0.00 | 55 | 1006.7 |
| 20260505004550 | 14 | 151 | 0.0 | 0.0 | 0.00 | 0.00 | 0.00 | 53 | 1006.5 |
| 20260505003024 | 15 | 207 | 0.0 | 0.0 | 0.00 | 0.00 | 0.00 | 52 | 1006.4 |
| 20260505001524 | 15 | 207 | 0.0 | 0.0 | 0.00 | 0.00 | 0.00 | 48 | 1006.2 |
| 20260505000023 | 16 | 207 | 0.0 | 0.0 | 0.00 | 0.00 | 0.00 | 47 | 1006.1 |
| 20260504234523 | 16 | 211 | 1.6 | 8.0 | 0.00 | 0.00 | 0.00 | 45 | 1006.0 |
| 20260504233024 | 17 | 208 | 3.2 | 14.5 | 0.00 | 0.00 | 0.00 | 45 | 1005.7 |
| 20260504231522 | 17 | 200 | 0.0 | 11.3 | 0.00 | 0.00 | 0.00 | 45 | 1005.6 |
| 20260504230021 | 17 | 220 | 6.4 | 19.3 | 0.00 | 0.00 | 0.00 | 44 | 1005.5 |
| 20260504224526 | 17 | 181 | 6.4 | 16.1 | 0.00 | 0.00 | 0.00 | 44 | 1005.3 |
| 20260504223020 | 17 | 196 | 4.8 | 16.1 | 0.00 | 0.00 | 0.00 | 44 | 1005.4 |
| 20260504221522 | 17 | 214 | 11.3 | 24.1 | 0.00 | 0.00 | 0.00 | 43 | 1005.4 |
| 20260504220019 | 17 | 221 | 6.4 | 16.1 | 0.00 | 0.00 | 0.00 | 43 | 1005.3 |
| 20260504214518 | 18 | 190 | 8.0 | 27.4 | 0.00 | 0.00 | 0.00 | 43 | 1005.2 |
| 20260504213032 | 18 | 186 | 9.7 | 19.3 | 0.00 | 0.00 | 0.00 | 44 | 1005.2 |
| 20260504211516 | 18 | 230 | 1.6 | 20.9 | 0.00 | 0.00 | 0.00 | 44 | 1005.4 |
| 20260504210014 | 18 | 157 | 8.0 | 27.4 | 0.00 | 0.00 | 0.00 | 42 | 1005.5 |
| 20260504204513 | 18 | 188 | 14.5 | 24.1 | 0.00 | 0.00 | 0.00 | 42 | 1005.5 |
| 20260504203013 | 18 | 307 | 3.2 | 25.7 | 0.00 | 0.00 | 0.00 | 43 | 1005.6 |
| 20260504201511 | 18 | 213 | 14.5 | 27.4 | 0.00 | 0.00 | 0.00 | 42 | 1005.8 |
| 20260504200009 | 18 | 210 | 8.0 | 29.0 | 0.00 | 0.00 | 0.00 | 44 | 1005.9 |
| 20260504194512 | 17 | 220 | 9.7 | 25.7 | 0.00 | 0.00 | 0.00 | 44 | 1006.0 |
| 20260504193005 | 17 | 201 | 8.0 | 33.8 | 0.00 | 0.00 | 0.00 | 46 | 1006.1 |
| 20260504191503 | 16 | 325 | 6.4 | 29.0 | 0.00 | 0.00 | 0.00 | 46 | 1006.2 |
| 20260504190002 | 17 | 213 | 14.5 | 35.4 | 0.00 | 0.00 | 0.00 | 45 | 1006.3 |
| 20260504184609 | 16 | 231 | 6.4 | 24.1 | 0.00 | 0.00 | 0.00 | 47 | 1006.3 |
| 20260504183058 | 16 | 198 | 11.3 | 32.2 | 0.00 | 0.00 | 0.00 | 47 | 1006.3 |
| 20260504181559 | 15 | 192 | 11.3 | 27.4 | 0.00 | 0.00 | 0.00 | 48 | 1006.3 |
| 20260504180055 | 15 | 302 | 12.9 | 33.8 | 0.00 | 0.00 | 0.00 | 47 | 1006.4 |
| 20260504174553 | 15 | 194 | 14.5 | 30.6 | 0.00 | 0.00 | 0.00 | 48 | 1006.7 |
| 20260504173152 | 15 | 207 | 17.7 | 37.0 | 0.00 | 0.00 | 0.00 | 48 | 1006.8 |
| 20260504171552 | 15 | 200 | 14.5 | 29.0 | 0.00 | 0.00 | 0.00 | 48 | 1006.8 |
| 20260504081539 | 6 | 186 | 3.2 | 11.3 | 0.00 | 0.00 | 0.00 | 80 | 1008.2 |
| 20260504050016 | 6 | 202 | 8.0 | 16.1 | 0.00 | 0.00 | 0.00 | 70 | 1009.0 |
| 20260504044514 | 5 | 213 | 0.0 | 3.2 | 0.00 | 0.00 | 0.00 | 64 | 1009.1 |
| 20260504043011 | 5 | 179 | 1.6 | 11.3 | 0.00 | 0.00 | 0.00 | 64 | 1009.1 |
| 20260504041607 | 5 | 211 | 0.0 | 4.8 | 0.00 | 0.00 | 0.00 | 60 | 1009.1 |
| 20260504040007 | 4 | 197 | 0.0 | 8.0 | 0.00 | 0.00 | 0.00 | 59 | 1009.1 |
| 20260504034507 | 4 | 229 | 0.0 | 6.4 | 0.00 | 0.00 | 0.00 | 62 | 1009.1 |
| 20260504033003 | 4 | 298 | 0.0 | 0.0 | 0.00 | 0.00 | 0.00 | 66 | 1009.1 |
| 20260504031503 | 5 | 298 | 0.0 | 0.0 | 0.00 | 0.00 | 0.00 | 59 | 1009.1 |
| 20260504030003 | 5 | 298 | 0.0 | 0.0 | 0.00 | 0.00 | 0.00 | 54 | 1009.1 |